,,,PA_Meas_PMT16A,,PR_Meas_QMR101_102,,RH_Meas_QMH101,,SR_Meas_QMS101,,TA_Meas_QMH101,,GenWind,,GenWind,
date,time,status,PA,status,PR,status,RH,status,SR,status,TA,status,DirAvg,status,SpdAvg,
2009-05-25, 00:00:04,VALID,999.359,VALID,0,VALID,90.4644,VALID,0,VALID,24.2086,VALID,91,VALID,0.346875,
2009-05-25, 00:01:04,VALID,999.39,VALID,0,VALID,90.3576,VALID,0,VALID,24.2495,VALID,110,VALID,0.473828,
2009-05-25, 00:02:04,VALID,999.354,VALID,0,VALID,90.1897,VALID,0,VALID,24.2281,VALID,117,VALID,0.471484,
2009-05-25, 00:03:04,VALID,999.362,VALID,0,VALID,90.1897,VALID,0.112286,VALID,24.2281,VALID,130,VALID,0.464453,
2009-05-25, 00:04:04,VALID,999.356,VALID,0,VALID,90.1821,VALID,0,VALID,24.1872,VALID,128,VALID,0.96875,
2009-05-25, 00:05:04,VALID,999.376,VALID,0,VALID,90.1745,VALID,0,VALID,24.2281,VALID,121,VALID,0.826953,
2009-05-25, 00:06:04,VALID,999.359,VALID,0,VALID,90.1516,VALID,0,VALID,24.2281,VALID,129,VALID,1.02305,
2009-05-25, 00:07:04,VALID,999.338,VALID,0,VALID,90.0524,VALID,0,VALID,24.2281,VALID,123,VALID,0.810938,
2009-05-25, 00:08:04,VALID,999.345,VALID,0,VALID,89.9837,VALID,0,VALID,24.2476,VALID,127,VALID,0.796875,
2009-05-25, 00:09:04,VALID,999.342,VALID,0,VALID,89.8388,VALID,0,VALID,24.2476,VALID,132,VALID,0.560938,
2009-05-25, 00:10:04,VALID,999.306,VALID,0,VALID,89.8617,VALID,0,VALID,24.2281,VALID,132,VALID,0.759375,
2009-05-25, 00:11:04,VALID,999.298,VALID,0,VALID,89.7472,VALID,0,VALID,24.2281,VALID,134,VALID,0.655469,
2009-05-25, 00:12:04,VALID,999.259,VALID,0,VALID,89.6938,VALID,0,VALID,24.2476,VALID,134,VALID,0.700391,
2009-05-25, 00:13:04,VALID,999.263,VALID,0,VALID,89.7472,VALID,0,VALID,24.2263,VALID,134,VALID,0.497266,
2009-05-25, 00:14:04,VALID,999.237,VALID,0,VALID,89.6862,VALID,0,VALID,24.2476,VALID,131,VALID,0.582812,
2009-05-25, 00:15:04,VALID,999.201,VALID,0,VALID,89.6328,VALID,0,VALID,24.2281,VALID,113,VALID,0.832031,
2009-05-25, 00:16:04,VALID,999.22,VALID,0,VALID,89.6633,VALID,0,VALID,24.2086,VALID,121,VALID,0.793359,
2009-05-25, 00:17:04,VALID,999.166,VALID,0,VALID,89.587,VALID,0,VALID,24.2086,VALID,116,VALID,0.863672,
2009-05-25, 00:18:04,VALID,999.155,VALID,0,VALID,89.6099,VALID,0,VALID,24.1891,VALID,110,VALID,0.856641,
2009-05-25, 00:19:04,VALID,999.102,VALID,0,VALID,89.7854,VALID,0,VALID,24.15,VALID,110,VALID,0.690234,
2009-05-25, 00:20:04,VALID,999.077,VALID,0,VALID,90.0066,VALID,0,VALID,24.1305,VALID,110,VALID,0.744922,
2009-05-25, 00:21:04,VALID,999.072,VALID,0,VALID,90.1974,VALID,0,VALID,24.111,VALID,110,VALID,0.661719,
2009-05-25, 00:22:04,VALID,999.05,VALID,0,VALID,90.3194,VALID,0,VALID,24.072,VALID,109,VALID,0.682031,
2009-05-25, 00:23:04,VALID,999.036,VALID,0,VALID,90.4873,VALID,0,VALID,24.0525,VALID,110,VALID,0.640234,
2009-05-25, 00:24:04,VALID,999.02,VALID,0,VALID,90.5865,VALID,0,VALID,24.0348,VALID,111,VALID,0.658594,
2009-05-25, 00:25:04,VALID,999.017,VALID,0,VALID,90.6857,VALID,0,VALID,23.9939,VALID,111,VALID,0.525391,
2009-05-25, 00:26:04,VALID,998.987,VALID,0,VALID,90.8535,VALID,0,VALID,23.9939,VALID,140,VALID,0.749609,
2009-05-25, 00:27:04,VALID,998.973,VALID,0,VALID,90.8688,VALID,0,VALID,24.0153,VALID,139,VALID,0.673047,
2009-05-25, 00:28:04,VALID,998.976,VALID,0,VALID,90.6628,VALID,0,VALID,23.9939,VALID,139,VALID,0.76875,
2009-05-25, 00:29:04,VALID,998.962,VALID,0,VALID,90.4415,VALID,0,VALID,24.0153,VALID,141,VALID,0.602734,
2009-05-25, 00:30:04,VALID,998.962,VALID,0,VALID,90.266,VALID,0,VALID,24.0134,VALID,141,VALID,0.614062,
2009-05-25, 00:31:04,VALID,998.979,VALID,0,VALID,89.9609,VALID,0,VALID,24.0329,VALID,150,VALID,0.791016,
2009-05-25, 00:32:04,VALID,998.937,VALID,0,VALID,89.9456,VALID,0,VALID,24.0329,VALID,141,VALID,0.751562,
2009-05-25, 00:33:04,VALID,998.957,VALID,0,VALID,89.854,VALID,0,VALID,24.0134,VALID,132,VALID,0.810547,
2009-05-25, 00:34:04,VALID,998.927,VALID,0,VALID,89.7854,VALID,0,VALID,24.0543,VALID,127,VALID,0.612109,
2009-05-25, 00:35:04,VALID,998.933,VALID,0,VALID,89.732,VALID,0,VALID,24.0134,VALID,127,VALID,0.505469,
2009-05-25, 00:36:04,VALID,998.919,VALID,0,VALID,89.7701,VALID,0,VALID,23.9939,VALID,127,VALID,0.428906,
2009-05-25, 00:37:04,VALID,998.957,VALID,0,VALID,89.7701,VALID,0,VALID,23.9744,VALID,125,VALID,0.370313,
2009-05-25, 00:38:04,VALID,998.945,VALID,0,VALID,89.8235,VALID,0,VALID,23.9549,VALID,125,VALID,0.272266,
2009-05-25, 00:39:04,VALID,998.92,VALID,0,VALID,89.9837,VALID,0,VALID,23.9372,VALID,125,VALID,0,
2009-05-25, 00:40:04,VALID,998.909,VALID,0,VALID,90.1287,VALID,0,VALID,23.8963,VALID,125,VALID,0,
2009-05-25, 00:41:04,VALID,998.956,VALID,0,VALID,90.2355,VALID,0,VALID,23.8786,VALID,125,VALID,0,
2009-05-25, 00:42:04,VALID,998.924,VALID,0,VALID,90.2966,VALID,0,VALID,23.8378,VALID,125,VALID,0.321484,
2009-05-25, 00:43:04,VALID,998.97,VALID,0,VALID,90.3347,VALID,0,VALID,23.8183,VALID,140,VALID,0.555469,
2009-05-25, 00:44:04,VALID,998.938,VALID,0,VALID,90.266,VALID,0,VALID,23.8183,VALID,143,VALID,0.464453,
2009-05-25, 00:45:04,VALID,998.955,VALID,0,VALID,90.3957,VALID,0,VALID,23.8183,VALID,143,VALID,0.666797,
2009-05-25, 00:46:04,VALID,998.946,VALID,0,VALID,90.3194,VALID,0,VALID,23.8183,VALID,143,VALID,0.235547,
2009-05-25, 00:47:04,VALID,998.95,VALID,0,VALID,90.266,VALID,0,VALID,23.8378,VALID,143,VALID,0,
2009-05-25, 00:48:04,VALID,998.966,VALID,0,VALID,90.144,VALID,0,VALID,23.8183,VALID,143,VALID,0,
2009-05-25, 00:49:04,VALID,998.928,VALID,0,VALID,90.2889,VALID,0,VALID,23.7988,VALID,143,VALID,0,
2009-05-25, 00:50:04,VALID,998.949,VALID,0,VALID,90.3652,VALID,0,VALID,23.7811,VALID,143,VALID,0,
2009-05-25, 00:51:04,VALID,998.913,VALID,0,VALID,90.5865,VALID,0,VALID,23.7402,VALID,143,VALID,0.0289063,
2009-05-25, 00:52:04,VALID,998.902,VALID,0,VALID,90.411,VALID,0,VALID,23.7597,VALID,141,VALID,0.433984,
2009-05-25, 00:53:04,VALID,998.873,VALID,0,VALID,90.3576,VALID,0,VALID,23.7597,VALID,125,VALID,0.446094,
2009-05-25, 00:54:04,VALID,998.878,VALID,0,VALID,90.1287,VALID,0,VALID,23.7988,VALID,125,VALID,0.876172,
2009-05-25, 00:55:04,VALID,998.879,VALID,0,VALID,89.8769,VALID,0,VALID,23.8396,VALID,125,VALID,0.578516,
2009-05-25, 00:56:04,VALID,998.928,VALID,0,VALID,89.7625,VALID,0,VALID,23.8378,VALID,125,VALID,0.659766,
2009-05-25, 00:57:04,VALID,998.907,VALID,0,VALID,89.8388,VALID,0,VALID,23.8786,VALID,125,VALID,0.416406,
2009-05-25, 00:58:04,VALID,998.898,VALID,0,VALID,89.8083,VALID,0,VALID,23.8768,VALID,125,VALID,0.391406,
2009-05-25, 00:59:04,VALID,998.892,VALID,0,VALID,89.6023,VALID,0,VALID,23.8982,VALID,125,VALID,0.217578,
2009-05-25, 01:00:04,VALID,998.888,VALID,0,VALID,89.4802,VALID,0,VALID,23.8768,VALID,129,VALID,0.356641,
2009-05-25, 01:01:04,VALID,998.854,VALID,0,VALID,89.2437,VALID,0,VALID,23.8963,VALID,134,VALID,0.200781,
2009-05-25, 01:02:04,VALID,998.835,VALID,0,VALID,89.3581,VALID,0,VALID,23.8982,VALID,134,VALID,0,
2009-05-25, 01:03:04,VALID,998.833,VALID,0,VALID,89.2818,VALID,0,VALID,23.8573,VALID,134,VALID,0.398047,
2009-05-25, 01:04:04,VALID,998.84,VALID,0,VALID,89.0834,VALID,0,VALID,23.8573,VALID,136,VALID,1.10039,
2009-05-25, 01:05:04,VALID,998.798,VALID,0,VALID,88.8622,VALID,0,VALID,23.8982,VALID,127,VALID,0.849219,
2009-05-25, 01:06:04,VALID,998.781,VALID,0,VALID,88.824,VALID,0,VALID,23.9372,VALID,127,VALID,0.746875,
2009-05-25, 01:07:04,VALID,998.802,VALID,0,VALID,88.5494,VALID,0,VALID,23.9354,VALID,115,VALID,0.9375,
2009-05-25, 01:08:04,VALID,998.753,VALID,0,VALID,88.4502,VALID,0,VALID,23.9372,VALID,115,VALID,1.11914,
2009-05-25, 01:09:04,VALID,998.738,VALID,0,VALID,88.5646,VALID,0,VALID,23.9372,VALID,119,VALID,0.997656,
2009-05-25, 01:10:04,VALID,998.739,VALID,0,VALID,88.6562,VALID,0,VALID,23.9177,VALID,122,VALID,0.701563,
2009-05-25, 01:11:04,VALID,998.696,VALID,0,VALID,88.7477,VALID,0,VALID,23.8786,VALID,122,VALID,0.683203,
2009-05-25, 01:12:04,VALID,998.709,VALID,0,VALID,89.0682,VALID,0,VALID,23.8591,VALID,122,VALID,0.611328,
2009-05-25, 01:13:04,VALID,998.68,VALID,0,VALID,89.1216,VALID,0,VALID,23.8396,VALID,122,VALID,0.6625,
2009-05-25, 01:14:04,VALID,998.661,VALID,0,VALID,89.175,VALID,0,VALID,23.8201,VALID,121,VALID,0.528906,
2009-05-25, 01:15:04,VALID,998.676,VALID,0,VALID,89.5336,VALID,0,VALID,23.8006,VALID,121,VALID,0.700781,
2009-05-25, 01:16:04,VALID,998.657,VALID,0,VALID,89.7014,VALID,0,VALID,23.8006,VALID,115,VALID,0.723437,
2009-05-25, 01:17:04,VALID,998.703,VALID,0,VALID,89.8769,VALID,0,VALID,23.8006,VALID,116,VALID,0.622266,
2009-05-25, 01:18:04,VALID,998.666,VALID,0,VALID,90.1211,VALID,0,VALID,23.7811,VALID,116,VALID,0.552344,
2009-05-25, 01:19:04,VALID,998.685,VALID,0,VALID,90.3881,VALID,0,VALID,23.7811,VALID,116,VALID,0.656641,
2009-05-25, 01:20:04,VALID,998.715,VALID,0,VALID,90.2737,VALID,0,VALID,23.7616,VALID,116,VALID,0.604297,
2009-05-25, 01:21:04,VALID,998.708,VALID,0,VALID,90.3423,VALID,0,VALID,23.7616,VALID,118,VALID,0.676562,
2009-05-25, 01:22:04,VALID,998.692,VALID,0,VALID,90.3652,VALID,0,VALID,23.7616,VALID,118,VALID,0.653906,
2009-05-25, 01:23:04,VALID,998.714,VALID,0,VALID,90.3652,VALID,0,VALID,23.742,VALID,118,VALID,0.444141,
2009-05-25, 01:24:04,VALID,998.673,VALID,0,VALID,90.4263,VALID,0,VALID,23.7225,VALID,105,VALID,0.644141,
2009-05-25, 01:25:04,VALID,998.697,VALID,0,VALID,90.3194,VALID,0,VALID,23.6835,VALID,85,VALID,0.818359,
2009-05-25, 01:26:04,VALID,998.635,VALID,0,VALID,90.4186,VALID,0,VALID,23.664,VALID,93,VALID,0.891016,
2009-05-25, 01:27:04,VALID,998.694,VALID,0,VALID,90.4491,VALID,0,VALID,23.625,VALID,93,VALID,0.471094,
2009-05-25, 01:28:04,VALID,998.662,VALID,0,VALID,90.6094,VALID,0,VALID,23.6054,VALID,99,VALID,0.534375,
2009-05-25, 01:29:04,VALID,998.636,VALID,0,VALID,90.762,VALID,0,VALID,23.5646,VALID,101,VALID,0.295312,
2009-05-25, 01:30:04,VALID,998.636,VALID,0,VALID,90.9756,VALID,0,VALID,23.5469,VALID,126,VALID,0.670703,
2009-05-25, 01:31:04,VALID,998.595,VALID,0,VALID,91.0824,VALID,0,VALID,23.5469,VALID,133,VALID,0.550781,
2009-05-25, 01:32:04,VALID,998.57,VALID,0,VALID,91.0824,VALID,0,VALID,23.5274,VALID,133,VALID,0.4125,
2009-05-25, 01:33:04,VALID,998.539,VALID,0,VALID,90.9603,VALID,0,VALID,23.5274,VALID,132,VALID,0.383594,
2009-05-25, 01:34:04,VALID,998.526,VALID,0,VALID,90.8764,VALID,0,VALID,23.5079,VALID,132,VALID,0.2,
2009-05-25, 01:35:04,VALID,998.507,VALID,0,VALID,90.8383,VALID,0,VALID,23.5079,VALID,132,VALID,0.0746094,
2009-05-25, 01:36:04,VALID,998.494,VALID,0,VALID,90.7772,VALID,0,VALID,23.4884,VALID,114,VALID,0.673828,
2009-05-25, 01:37:04,VALID,998.493,VALID,0,VALID,90.6399,VALID,0,VALID,23.4688,VALID,114,VALID,0.587109,
2009-05-25, 01:38:04,VALID,998.48,VALID,0,VALID,90.5865,VALID,0,VALID,23.4688,VALID,114,VALID,0.7125,
2009-05-25, 01:39:04,VALID,998.455,VALID,0,VALID,90.7162,VALID,0,VALID,23.4688,VALID,115,VALID,1.02734,
2009-05-25, 01:40:04,VALID,998.461,VALID,0,VALID,90.823,VALID,0,VALID,23.4688,VALID,121,VALID,0.739453,
2009-05-25, 01:41:04,VALID,998.444,VALID,0,VALID,90.968,VALID,0,VALID,23.4688,VALID,124,VALID,0.947656,
2009-05-25, 01:42:04,VALID,998.432,VALID,0,VALID,90.823,VALID,0,VALID,23.4688,VALID,126,VALID,1.17773,
2009-05-25, 01:43:04,VALID,998.419,VALID,0,VALID,90.5788,VALID,0,VALID,23.4688,VALID,139,VALID,0.894531,
2009-05-25, 01:44:04,VALID,998.463,VALID,0,VALID,90.3347,VALID,0,VALID,23.4688,VALID,150,VALID,0.659375,
2009-05-25, 01:45:04,VALID,998.43,VALID,0,VALID,90.1134,VALID,0,VALID,23.4493,VALID,144,VALID,0.842578,
2009-05-25, 01:46:04,VALID,998.416,VALID,0,VALID,89.8769,VALID,0,VALID,23.4688,VALID,149,VALID,0.788672,
2009-05-25, 01:47:04,VALID,998.418,VALID,0,VALID,89.6938,VALID,0,VALID,23.4884,VALID,154,VALID,0.605859,
2009-05-25, 01:48:04,VALID,998.406,VALID,0,VALID,89.7167,VALID,0,VALID,23.5079,VALID,145,VALID,1.05586,
2009-05-25, 01:49:04,VALID,998.37,VALID,0,VALID,89.6251,VALID,0,VALID,23.5079,VALID,135,VALID,0.634375,
2009-05-25, 01:50:04,VALID,998.341,VALID,0,VALID,89.4726,VALID,0,VALID,23.4866,VALID,135,VALID,0.313281,
2009-05-25, 01:51:04,VALID,998.333,VALID,0,VALID,89.7625,VALID,0,VALID,23.4884,VALID,135,VALID,0.282813,
2009-05-25, 01:52:04,VALID,998.296,VALID,0,VALID,90.0753,VALID,0,VALID,23.4688,VALID,135,VALID,0.383594,
2009-05-25, 01:53:04,VALID,998.308,VALID,0,VALID,90.2813,VALID,0,VALID,23.4493,VALID,135,VALID,0.432813,
2009-05-25, 01:54:04,VALID,998.277,VALID,0,VALID,90.3118,VALID,0,VALID,23.4103,VALID,133,VALID,0.206641,
2009-05-25, 01:55:04,VALID,998.291,VALID,0,VALID,90.4186,VALID,0,VALID,23.3695,VALID,133,VALID,0.120312,
2009-05-25, 01:56:04,VALID,998.286,VALID,0,VALID,90.4034,VALID,0,VALID,23.3713,VALID,133,VALID,0,
2009-05-25, 01:57:04,VALID,998.264,VALID,0,VALID,90.4186,VALID,0,VALID,23.3323,VALID,133,VALID,0.0871094,
2009-05-25, 01:58:04,VALID,998.315,VALID,0,VALID,90.5636,VALID,0,VALID,23.3127,VALID,130,VALID,0.588672,
2009-05-25, 01:59:04,VALID,998.293,VALID,0,VALID,90.5407,VALID,0,VALID,23.2737,VALID,111,VALID,0.601953,
2009-05-25, 02:00:04,VALID,998.297,VALID,0,VALID,90.8764,VALID,0,VALID,23.2524,VALID,120,VALID,0.630078,
2009-05-25, 02:01:04,VALID,998.282,VALID,0,VALID,90.8383,VALID,0,VALID,23.2737,VALID,120,VALID,0.404297,
2009-05-25, 02:02:04,VALID,998.309,VALID,0,VALID,90.8917,VALID,0,VALID,23.2737,VALID,120,VALID,0.180469,
2009-05-25, 02:03:04,VALID,998.331,VALID,0,VALID,90.9146,VALID,0,VALID,23.2737,VALID,120,VALID,0.0738281,
2009-05-25, 02:04:04,VALID,998.33,VALID,0,VALID,90.8306,VALID,0,VALID,23.2737,VALID,120,VALID,0,
2009-05-25, 02:05:04,VALID,998.332,VALID,0,VALID,91.029,VALID,0,VALID,23.2737,VALID,120,VALID,0,
2009-05-25, 02:06:04,VALID,998.329,VALID,0,VALID,91.0443,VALID,0,VALID,23.2737,VALID,120,VALID,0,
2009-05-25, 02:07:04,VALID,998.308,VALID,0,VALID,90.968,VALID,0,VALID,23.2524,VALID,120,VALID,0.0503906,
2009-05-25, 02:08:04,VALID,998.298,VALID,0,VALID,90.7009,VALID,0,VALID,23.2524,VALID,120,VALID,0.278516,
2009-05-25, 02:09:04,VALID,998.302,VALID,0,VALID,90.7009,VALID,0,VALID,23.2329,VALID,120,VALID,0.182812,
2009-05-25, 02:10:04,VALID,998.287,VALID,0,VALID,90.8688,VALID,0,VALID,23.2329,VALID,120,VALID,0,
2009-05-25, 02:11:04,VALID,998.269,VALID,0,VALID,90.9603,VALID,0,VALID,23.2347,VALID,120,VALID,0,
2009-05-25, 02:12:04,VALID,998.268,VALID,0,VALID,91.1587,VALID,0,VALID,23.2347,VALID,120,VALID,0.000390625,
2009-05-25, 02:13:04,VALID,998.249,VALID,0,VALID,91.0137,VALID,0,VALID,23.2347,VALID,121,VALID,0.426953,
2009-05-25, 02:14:04,VALID,998.232,VALID,0,VALID,90.5407,VALID,0,VALID,23.2542,VALID,149,VALID,0.664063,
2009-05-25, 02:15:04,VALID,998.194,VALID,0,VALID,89.8846,VALID,0,VALID,23.2719,VALID,149,VALID,1.04883,
2009-05-25, 02:16:04,VALID,998.191,VALID,0,VALID,89.3886,VALID,0,VALID,23.3518,VALID,127,VALID,1.04258,
2009-05-25, 02:17:04,VALID,998.182,VALID,0,VALID,89.0834,VALID,0,VALID,23.4103,VALID,133,VALID,0.961719,
2009-05-25, 02:18:04,VALID,998.19,VALID,0,VALID,88.9995,VALID,0,VALID,23.4493,VALID,131,VALID,0.856641,
2009-05-25, 02:19:04,VALID,998.178,VALID,0,VALID,88.8164,VALID,0,VALID,23.4884,VALID,136,VALID,0.609766,
2009-05-25, 02:20:04,VALID,998.191,VALID,0,VALID,88.8622,VALID,0,VALID,23.4475,VALID,127,VALID,0.869531,
2009-05-25, 02:21:04,VALID,998.202,VALID,0,VALID,88.8011,VALID,0,VALID,23.4688,VALID,132,VALID,0.464453,
2009-05-25, 02:22:04,VALID,998.196,VALID,0,VALID,88.7401,VALID,0,VALID,23.4475,VALID,132,VALID,0.310937,
2009-05-25, 02:23:04,VALID,998.159,VALID,0,VALID,88.7859,VALID,0,VALID,23.4688,VALID,132,VALID,0.494922,
2009-05-25, 02:24:04,VALID,998.147,VALID,0,VALID,88.7554,VALID,0,VALID,23.4688,VALID,132,VALID,0.432031,
2009-05-25, 02:25:04,VALID,998.13,VALID,0,VALID,88.7249,VALID,0,VALID,23.428,VALID,132,VALID,0.548828,
2009-05-25, 02:26:04,VALID,998.138,VALID,0,VALID,88.6638,VALID,0,VALID,23.4493,VALID,132,VALID,0.586328,
2009-05-25, 02:27:04,VALID,998.129,VALID,0,VALID,88.6714,VALID,0,VALID,23.428,VALID,132,VALID,0.732422,
2009-05-25, 02:28:04,VALID,998.14,VALID,0,VALID,88.618,VALID,0,VALID,23.4493,VALID,132,VALID,0.737109,
2009-05-25, 02:29:04,VALID,998.119,VALID,0,VALID,88.5951,VALID,0,VALID,23.4493,VALID,132,VALID,0.862109,
2009-05-25, 02:30:04,VALID,998.099,VALID,0,VALID,88.5494,VALID,0,VALID,23.4688,VALID,132,VALID,0.707422,
2009-05-25, 02:31:04,VALID,998.087,VALID,0,VALID,88.763,VALID,0,VALID,23.4671,VALID,130,VALID,0.535937,
2009-05-25, 02:32:04,VALID,998.116,VALID,0,VALID,88.618,VALID,0,VALID,23.4884,VALID,114,VALID,0.518359,
2009-05-25, 02:33:04,VALID,998.101,VALID,0,VALID,88.7401,VALID,0,VALID,23.4688,VALID,92,VALID,0.712891,
2009-05-25, 02:34:04,VALID,998.128,VALID,0,VALID,88.8469,VALID,0,VALID,23.4493,VALID,91,VALID,0.423047,
2009-05-25, 02:35:04,VALID,998.156,VALID,0,VALID,89.0453,VALID,0,VALID,23.428,VALID,91,VALID,0.432422,
2009-05-25, 02:36:04,VALID,998.143,VALID,0,VALID,89.114,VALID,0,VALID,23.4085,VALID,91,VALID,0.560547,
2009-05-25, 02:37:04,VALID,998.148,VALID,0,VALID,89.2284,VALID,0,VALID,23.4298,VALID,91,VALID,0.518359,
2009-05-25, 02:38:04,VALID,998.173,VALID,0,VALID,89.2437,VALID,0,VALID,23.4103,VALID,91,VALID,0.498047,
2009-05-25, 02:39:04,VALID,998.173,VALID,0,VALID,89.5336,VALID,0,VALID,23.3695,VALID,92,VALID,0.665625,
2009-05-25, 02:40:04,VALID,998.186,VALID,0,VALID,89.7014,VALID,0,VALID,23.3518,VALID,95,VALID,0.590234,
2009-05-25, 02:41:04,VALID,998.174,VALID,0,VALID,89.8617,VALID,0,VALID,23.3518,VALID,110,VALID,0.637109,
2009-05-25, 02:42:04,VALID,998.158,VALID,0,VALID,89.9761,VALID,0,VALID,23.3518,VALID,111,VALID,0.512109,
2009-05-25, 02:43:04,VALID,998.159,VALID,0,VALID,90.0219,VALID,0,VALID,23.3305,VALID,116,VALID,0.5375,
2009-05-25, 02:44:04,VALID,998.182,VALID,0,VALID,89.732,VALID,0,VALID,23.3518,VALID,116,VALID,0.693359,
2009-05-25, 02:45:04,VALID,998.158,VALID,0,VALID,89.5565,VALID,0,VALID,23.3518,VALID,114,VALID,0.625781,
2009-05-25, 02:46:04,VALID,998.166,VALID,0,VALID,89.4039,VALID,0,VALID,23.3518,VALID,114,VALID,0.626953,
2009-05-25, 02:47:04,VALID,998.183,VALID,0,VALID,89.5794,VALID,0,VALID,23.3323,VALID,113,VALID,0.613672,
2009-05-25, 02:48:04,VALID,998.164,VALID,0,VALID,89.587,VALID,0,VALID,23.3127,VALID,111,VALID,0.584375,
2009-05-25, 02:49:04,VALID,998.145,VALID,0,VALID,90.5102,VALID,0,VALID,23.3323,VALID,111,VALID,0.308594,
2009-05-25, 02:50:04,VALID,998.148,VALID,0,VALID,90.3728,VALID,0,VALID,23.3127,VALID,111,VALID,0.0585938,
2009-05-25, 02:51:04,VALID,998.151,VALID,0,VALID,90.4873,VALID,0,VALID,23.3127,VALID,116,VALID,0.682422,
2009-05-25, 02:52:04,VALID,998.135,VALID,0,VALID,90.4491,VALID,0,VALID,23.2737,VALID,118,VALID,0.0410156,
2009-05-25, 02:53:04,VALID,998.114,VALID,0,VALID,90.6017,VALID,0,VALID,23.2542,VALID,118,VALID,0,
2009-05-25, 02:54:04,VALID,998.112,VALID,0,VALID,90.8306,VALID,0,VALID,23.2347,VALID,118,VALID,0,
2009-05-25, 02:55:04,VALID,998.135,VALID,0,VALID,90.8764,VALID,0,VALID,23.1957,VALID,118,VALID,0.103125,
2009-05-25, 02:56:04,VALID,998.102,VALID,0,VALID,90.8306,VALID,0,VALID,23.1762,VALID,114,VALID,0.459375,
2009-05-25, 02:57:04,VALID,998.115,VALID,0,VALID,90.7009,VALID,0,VALID,23.1566,VALID,111,VALID,0.366406,
2009-05-25, 02:58:04,VALID,998.102,VALID,0,VALID,90.5788,VALID,0,VALID,23.1566,VALID,111,VALID,0.33125,
2009-05-25, 02:59:04,VALID,998.109,VALID,0,VALID,90.5178,VALID,0,VALID,23.1566,VALID,111,VALID,0.344531,
2009-05-25, 03:00:04,VALID,998.153,VALID,0,VALID,90.3728,VALID,0,VALID,23.1159,VALID,135,VALID,0.458203,
2009-05-25, 03:01:04,VALID,998.191,VALID,0,VALID,90.3805,VALID,0,VALID,23.1566,VALID,135,VALID,0.586719,
2009-05-25, 03:02:04,VALID,998.201,VALID,0,VALID,90.5178,VALID,0,VALID,23.1549,VALID,135,VALID,0.435937,
2009-05-25, 03:03:04,VALID,998.241,VALID,0,VALID,90.3881,VALID,0,VALID,23.1354,VALID,134,VALID,0.502344,
2009-05-25, 03:04:04,VALID,998.247,VALID,0,VALID,90.3118,VALID,0,VALID,23.1354,VALID,106,VALID,0.701953,
2009-05-25, 03:05:04,VALID,998.249,VALID,0,VALID,90.2508,VALID,0,VALID,23.1957,VALID,89,VALID,0.830469,
2009-05-25, 03:06:04,VALID,998.239,VALID,0,VALID,89.9151,VALID,0,VALID,23.2152,VALID,89,VALID,0.713672,
2009-05-25, 03:07:04,VALID,998.207,VALID,0,VALID,89.9303,VALID,0,VALID,23.2134,VALID,97,VALID,0.596875,
2009-05-25, 03:08:04,VALID,998.16,VALID,0,VALID,90.0143,VALID,0,VALID,23.2542,VALID,97,VALID,0.582422,
2009-05-25, 03:09:04,VALID,998.164,VALID,0,VALID,90.1287,VALID,0,VALID,23.2347,VALID,102,VALID,0.652344,
2009-05-25, 03:10:04,VALID,998.163,VALID,0,VALID,90.1211,VALID,0,VALID,23.2347,VALID,112,VALID,0.840234,
2009-05-25, 03:11:04,VALID,998.132,VALID,0,VALID,90.0143,VALID,0,VALID,23.2329,VALID,114,VALID,0.973828,
2009-05-25, 03:12:04,VALID,998.131,VALID,0,VALID,89.9532,VALID,0,VALID,23.2347,VALID,114,VALID,1.03945,
2009-05-25, 03:13:04,VALID,998.109,VALID,0,VALID,89.9227,VALID,0,VALID,23.2134,VALID,113,VALID,1.10039,
2009-05-25, 03:14:04,VALID,998.109,VALID,0,VALID,89.6251,VALID,0,VALID,23.2152,VALID,110,VALID,1.22852,
2009-05-25, 03:15:04,VALID,998.101,VALID,0,VALID,89.4954,VALID,0,VALID,23.1957,VALID,109,VALID,1.16172,
2009-05-25, 03:16:04,VALID,998.086,VALID,0,VALID,89.4649,VALID,0,VALID,23.1566,VALID,110,VALID,1.10898,
2009-05-25, 03:17:04,VALID,998.063,VALID,0,VALID,89.6251,VALID,0,VALID,23.0964,VALID,116,VALID,0.928516,
2009-05-25, 03:18:04,VALID,998.063,VALID,0,VALID,89.9151,VALID,0,VALID,23.0981,VALID,121,VALID,0.889063,
2009-05-25, 03:19:04,VALID,998.027,VALID,0,VALID,90.0371,VALID,0,VALID,23.0769,VALID,117,VALID,0.540625,
2009-05-25, 03:20:04,VALID,998.011,VALID,0,VALID,90.1211,VALID,0,VALID,23.0591,VALID,117,VALID,0.346484,
2009-05-25, 03:21:04,VALID,998.024,VALID,0,VALID,90.411,VALID,0,VALID,23.0591,VALID,117,VALID,0.322656,
2009-05-25, 03:22:04,VALID,997.989,VALID,0,VALID,90.6017,VALID,0,VALID,23.0201,VALID,117,VALID,0.273828,
2009-05-25, 03:23:04,VALID,998.002,VALID,0,VALID,90.7391,VALID,0,VALID,23.0006,VALID,117,VALID,0.303125,
2009-05-25, 03:24:04,VALID,998.038,VALID,0,VALID,90.8001,VALID,0,VALID,23.0006,VALID,95,VALID,0.473047,
2009-05-25, 03:25:04,VALID,998.035,VALID,0,VALID,90.9374,VALID,0,VALID,22.9615,VALID,92,VALID,0.446484,
2009-05-25, 03:26:04,VALID,998.046,VALID,0,VALID,91.1053,VALID,0,VALID,22.9225,VALID,52,VALID,0.89375,
2009-05-25, 03:27:04,VALID,998.084,VALID,0,VALID,90.9069,VALID,0,VALID,22.903,VALID,79,VALID,0.817578,
2009-05-25, 03:28:04,VALID,998.099,VALID,0,VALID,90.7314,VALID,0,VALID,22.8835,VALID,89,VALID,0.400391,
2009-05-25, 03:29:04,VALID,998.051,VALID,0,VALID,90.6475,VALID,0,VALID,22.864,VALID,89,VALID,0.176953,
2009-05-25, 03:30:04,VALID,998.085,VALID,0,VALID,90.6704,VALID,0,VALID,22.8445,VALID,89,VALID,0,
2009-05-25, 03:31:04,VALID,998.069,VALID,0,VALID,90.8154,VALID,0,VALID,22.8055,VALID,89,VALID,0,
2009-05-25, 03:32:04,VALID,998.06,VALID,0,VALID,90.823,VALID,0,VALID,22.8232,VALID,162,VALID,0.402734,
2009-05-25, 03:33:04,VALID,998.052,VALID,0,VALID,90.6628,VALID,0,VALID,22.8232,VALID,163,VALID,0,
2009-05-25, 03:34:04,VALID,998.043,VALID,0,VALID,90.5941,VALID,0,VALID,22.8623,VALID,173,VALID,0.483203,
2009-05-25, 03:35:04,VALID,998.04,VALID,0,VALID,90.2203,VALID,0,VALID,22.9013,VALID,176,VALID,0.226953,
2009-05-25, 03:36:04,VALID,998.061,VALID,0,VALID,90.1516,VALID,0,VALID,22.9615,VALID,176,VALID,0.188281,
2009-05-25, 03:37:04,VALID,998.048,VALID,0,VALID,89.9914,VALID,0,VALID,22.9403,VALID,176,VALID,0.1875,
2009-05-25, 03:38:04,VALID,998.046,VALID,0,VALID,89.6709,VALID,0,VALID,22.942,VALID,158,VALID,0.776563,
2009-05-25, 03:39:04,VALID,998.049,VALID,0,VALID,89.2132,VALID,0,VALID,22.9598,VALID,143,VALID,1.39961,
2009-05-25, 03:40:04,VALID,998.054,VALID,0,VALID,89.0071,VALID,0,VALID,23.0378,VALID,133,VALID,0.835547,
2009-05-25, 03:41:04,VALID,998.065,VALID,0,VALID,88.7249,VALID,0,VALID,23.0769,VALID,124,VALID,0.696484,
2009-05-25, 03:42:04,VALID,998.044,VALID,0,VALID,88.5723,VALID,0,VALID,23.1176,VALID,130,VALID,0.554688,
2009-05-25, 03:43:04,VALID,998.06,VALID,0,VALID,88.618,VALID,0,VALID,23.1159,VALID,130,VALID,0.390234,
2009-05-25, 03:44:04,VALID,998.063,VALID,0,VALID,88.5112,VALID,0,VALID,23.0964,VALID,130,VALID,0.372656,
2009-05-25, 03:45:04,VALID,998.069,VALID,0,VALID,88.4731,VALID,0,VALID,23.0786,VALID,69,VALID,0.785937,